Temp
-9 -9 -10 -10 -10 -10 -11 -11 -11 -11 -12 -12 -12 -13 -13 -14 -14 -14 -14 -14 -15 -15 -15 -15 -16 -16 -16 -16 -17 -17 -17 -17 -18 -18 -18 -18 -19 -19 -19 -20 -20 -20
-10 -10 -10 -10 -11 -11 -11 -12 -12 -12 -12 -13 -13 -14 -14 -14 -14 -14 -15 -15 -15 -16 -16 -16 -16 -16 -17 -17 -17 -17 -18 -18 -18 -19 -19 -19 -19 -20 -20 -20 -21 -21
-10 -11 -11 -11 -11 -12 -12 -13 -13 -13 -13 -14 -14 -14 -14 -15 -15 -15 -15 -16 -16 -16 -16 -16 -17 -17 -18 -18 -18 -18 -18 -19 -19 -19 -20 -20 -20 -20 -21 -21 -21 -22
-11 -11 -11 -12 -12 -13 -13 -14 -14 -14 -14 -14 -15 -15 -15 -15 -15 -15 -16 -16 -16 -17 -17 -17 -17 -18 -18 -18 -18 -19 -19 -19 -20 -20 -20 -20 -21 -21 -21 -22 -22 -22
-11 -12 -12 -13 -13 -13 -14 -14 -14 -14 -15 -15 -15 -15 -15 -15 -16 -16 -16 -17 -17 -17 -17 -17 -18 -18 -19 -19 -19 -19 -19 -20 -20 -20 -21 -21 -21 -21 -22 -22 -22 -23
-12 -12 -13 -13 -14 -14 -14 -14 -15 -15 -15 -15 -16 -16 -16 -16 -16 -16 -17 -17 -17 -17 -18 -18 -18 -19 -19 -19 -19 -20 -20 -20 -21 -21 -21 -21 -22 -22 -22 -23 -23 -23
-12 -13 -13 -14 -14 -14 -15 -15 -15 -15 -15 -16 -16 -16 -16 -16 -16 -17 -17 -17 -17 -18 -18 -18 -19 -19 -19 -20 -20 -20 -21 -21 -21 -21 -22 -22 -22 -23 -23 -23 -24 -24
-13 -13 -14 -14 -14 -15 -15 -15 -15 -15 -16 -16 -16 -16 -16 -16 -17 -17 -17 -18 -18 -18 -19 -19 -19 -20 -20 -20 -20 -21 -21 -21 -22 -22 -22 -22 -23 -23 -23 -24 -24 -24
-13 -13 -14 -14 -15 -15 -15 -15 -15 -16 -16 -16 -16 -16 -16 -17 -17 -17 -18 -18 -18 -19 -19 -19 -20 -20 -20 -21 -21 -21 -22 -22 -22 -22 -23 -23 -23 -23 -24 -24 -24 -25
-13 -14 -14 -14 -15 -15 -15 -15 -16 -16 -16 -16 -16 -16 -17 -17 -17 -18 -18 -18 -19 -19 -19 -20 -20 -20 -21 -21 -21 -22 -22 -22 -23 -23 -23 -23 -24 -24 -24 -24 -25 -25
-13 -14 -14 -14 -15 -15 -15 -16 -16 -16 -16 -16 -16 -17 -17 -17 -18 -18 -19 -19 -19 -19 -20 -20 -20 -21 -21 -22 -22 -22 -23 -23 -23 -23 -23 -24 -24 -24 -24 -25 -25 -25
-13 -14 -14 -15 -15 -15 -15 -16 -16 -16 -16 -16 -17 -17 -17 -18 -18 -19 -19 -19 -19 -20 -20 -20 -21 -21 -22 -22 -22 -23 -23 -23 -23 -24 -24 -24 -24 -25 -25 -25 -25 -26
-13 -14 -15 -15 -15 -15 -16 -16 -16 -16 -17 -17 -17 -17 -18 -18 -19 -19 -19 -19 -20 -20 -20 -21 -21 -22 -22 -22 -23 -23 -23 -24 -24 -24 -24 -24 -25 -25 -25 -25 -26 -26
-14 -15 -15 -15 -15 -15 -16 -16 -16 -17 -17 -17 -17 -18 -18 -19 -19 -19 -19 -20 -20 -20 -21 -21 -22 -22 -22 -23 -23 -23 -24 -24 -24 -24 -25 -25 -25 -25 -25 -26 -26 -26
-14 -15 -15 -15 -15 -16 -16 -16 -17 -17 -17 -17 -18 -18 -19 -19 -19 -19 -20 -20 -20 -21 -21 -22 -22 -22 -23 -23 -24 -24 -24 -24 -25 -25 -25 -25 -25 -25 -26 -26 -26 -26
-15 -15 -15 -15 -15 -16 -16 -17 -17 -17 -18 -18 -18 -19 -19 -19 -19 -20 -20 -20 -21 -21 -22 -22 -22 -23 -23 -24 -24 -24 -24 -25 -25 -25 -25 -25 -25 -26 -26 -26 -26 -27
-15 -15 -15 -15 -16 -16 -16 -17 -17 -17 -18 -18 -19 -19 -19 -19 -20 -20 -20 -21 -21 -21 -22 -22 -23 -23 -24 -24 -24 -25 -25 -25 -25 -25 -25 -25 -25 -25 -26 -26 -26 -27
-15 -15 -15 -15 -16 -16 -17 -17 -17 -18 -18 -19 -19 -19 -19 -19 -20 -20 -21 -21 -21 -22 -22 -23 -23 -24 -24 -24 -25 -25 -25 -26 -26 -26 -26 -26 -25 -26 -26 -26 -26 -26
-15 -15 -15 -16 -16 -16 -17 -17 -18 -18 -19 -19 -19 -19 -19 -20 -20 -21 -21 -21 -22 -22 -22 -23 -23 -24 -24 -25 -25 -25 -26 -26 -27 -26 -26 -26 -26 -26 -26 -27 -27 -27
-15 -15 -15 -16 -16 -17 -17 -18 -18 -19 -19 -19 -19 -19 -20 -20 -21 -21 -21 -22 -22 -22 -23 -23 -24 -24 -25 -25 -25 -26 -26 -27 -27 -27 -26 -27 -27 -27 -27 -27 -27 -28
-15 -15 -16 -16 -17 -17 -18 -18 -19 -19 -19 -19 -19 -20 -20 -21 -21 -21 -22 -22 -23 -23 -23 -24 -24 -25 -25 -25 -26 -26 -26 -27 -27 -27 -27 -27 -27 -27 -27 -28 -28 -28
-15 -16 -16 -16 -17 -18 -18 -19 -19 -19 -19 -20 -20 -20 -21 -21 -21 -22 -22 -23 -23 -23 -24 -24 -25 -25 -25 -26 -26 -26 -27 -27 -27 -27 -27 -27 -27 -27 -28 -28 -28 -28
-15 -16 -16 -17 -18 -18 -19 -19 -19 -19 -20 -20 -20 -21 -21 -21 -22 -22 -22 -23 -23 -24 -24 -24 -25 -25 -26 -26 -26 -27 -27 -27 -27 -27 -27 -27 -27 -28 -28 -28 -28 -28
-16 -16 -17 -18 -19 -19 -19 -19 -20 -20 -20 -20 -21 -21 -21 -22 -22 -22 -23 -23 -24 -24 -25 -25 -25 -26 -26 -26 -27 -27 -27 -27 -27 -27 -27 -27 -27 -28 -28 -28 -28 -28
-16 -17 -18 -19 -19 -19 -19 -20 -20 -20 -20 -21 -21 -21 -22 -22 -22 -23 -23 -24 -24 -25 -25 -25 -25 -26 -26 -27 -27 -27 -27 -27 -27 -27 -27 -27 -28 -28 -28 -28 -28 -28
-17 -18 -18 -19 -19 -19 -20 -20 -20 -20 -21 -21 -21 -22 -22 -22 -23 -23 -24 -24 -25 -25 -25 -26 -26 -26 -27 -27 -27 -27 -27 -27 -27 -27 -27 -28 -28 -28 -28 -28 -28 -28
Height
3021 3019 3016 3014 3012 3010 3008 3005 3003 3000 2998 2997 2995 2992 2990 2988 2985 2983 2981 2979 2977 2974 2972 2969 2967 2964 2961 2958 2956 2953 2951 2948 2946 2944 2941 2938 2936 2933 2931 2929 2926 2924
3015 3012 3010 3008 3006 3004 3001 2999 2996 2994 2992 2990 2988 2986 2984 2981 2979 2977 2975 2973 2970 2968 2965 2963 2960 2957 2955 2952 2949 2946 2944 2942 2939 2937 2934 2931 2929 2927 2924 2922 2920 2917
3008 3006 3004 3001 2999 2997 2995 2992 2990 2988 2986 2984 2982 2980 2977 2975 2973 2970 2969 2966 2964 2961 2958 2956 2953 2951 2948 2945 2942 2940 2937 2935 2933 2930 2927 2925 2922 2920 2917 2915 2913 2910
3002 3000 2997 2995 2993 2991 2988 2986 2983 2981 2979 2977 2975 2973 2970 2968 2966 2964 2962 2959 2957 2954 2952 2949 2947 2944 2941 2938 2936 2933 2931 2928 2926 2923 2920 2918 2915 2913 2910 2908 2906 2904
2996 2993 2991 2989 2986 2984 2982 2979 2977 2975 2973 2971 2969 2966 2963 2961 2959 2957 2955 2952 2950 2947 2944 2942 2940 2937 2934 2932 2929 2926 2924 2921 2919 2916 2913 2911 2908 2906 2903 2901 2899 2897
2989 2987 2985 2982 2980 2978 2975 2973 2971 2969 2966 2964 2962 2959 2957 2955 2952 2950 2948 2945 2942 2940 2938 2935 2933 2931 2928 2925 2922 2920 2917 2914 2912 2909 2906 2904 2902 2899 2897 2895 2892 2890
2983 2981 2978 2976 2974 2971 2969 2967 2965 2962 2960 2958 2955 2952 2950 2948 2946 2944 2941 2938 2936 2933 2931 2929 2926 2924 2921 2918 2915 2913 2910 2908 2905 2902 2900 2897 2895 2892 2890 2888 2886 2884
2976 2974 2972 2970 2967 2965 2963 2961 2958 2956 2953 2951 2948 2946 2944 2941 2939 2937 2934 2932 2929 2927 2925 2922 2920 2917 2914 2911 2909 2906 2904 2901 2898 2895 2893 2890 2888 2886 2884 2881 2879 2877
2969 2967 2965 2963 2961 2959 2956 2954 2952 2949 2946 2944 2941 2939 2937 2935 2933 2930 2928 2925 2923 2920 2918 2916 2913 2910 2907 2905 2902 2900 2897 2894 2891 2888 2886 2884 2881 2879 2877 2875 2872 2871
2962 2961 2958 2956 2954 2952 2950 2948 2945 2942 2939 2937 2935 2933 2931 2929 2926 2923 2921 2918 2916 2914 2912 2909 2906 2903 2901 2898 2896 2893 2890 2887 2884 2882 2879 2877 2875 2872 2870 2868 2866 2864
2956 2954 2952 2950 2948 2945 2943 2940 2937 2935 2932 2930 2928 2926 2924 2922 2919 2917 2915 2912 2910 2908 2905 2903 2900 2897 2894 2892 2889 2886 2883 2880 2878 2875 2873 2870 2868 2866 2864 2862 2860 2858
2949 2947 2945 2943 2941 2938 2936 2933 2930 2928 2926 2924 2922 2920 2917 2915 2913 2911 2908 2906 2904 2901 2899 2896 2893 2890 2887 2885 2883 2879 2876 2874 2871 2868 2866 2864 2862 2860 2857 2855 2854 2852
2942 2940 2938 2936 2934 2931 2928 2926 2923 2922 2919 2917 2915 2913 2911 2909 2906 2904 2902 2899 2897 2895 2892 2889 2886 2883 2881 2879 2876 2873 2870 2867 2864 2862 2859 2857 2855 2853 2851 2849 2848 2846
2935 2933 2931 2929 2926 2923 2921 2919 2917 2915 2913 2911 2908 2906 2904 2902 2900 2897 2895 2893 2891 2888 2885 2882 2879 2877 2875 2872 2869 2866 2863 2860 2858 2855 2853 2851 2849 2846 2845 2843 2841 2840
2928 2926 2924 2921 2919 2916 2914 2912 2910 2908 2906 2904 2902 2900 2898 2895 2893 2891 2888 2886 2884 2881 2878 2875 2873 2871 2868 2865 2862 2859 2856 2853 2851 2848 2846 2844 2842 2840 2838 2836 2835 2834
2920 2918 2916 2914 2911 2909 2907 2905 2903 2901 2899 2897 2895 2893 2891 2889 2886 2884 2882 2880 2877 2874 2871 2869 2866 2864 2862 2859 2856 2852 2849 2846 2844 2842 2840 2838 2836 2833 2831 2830 2829 2828
2914 2911 2909 2906 2904 2902 2900 2898 2896 2894 2893 2891 2889 2886 2884 2882 2880 2878 2875 2873 2871 2868 2865 2862 2860 2858 2855 2852 2849 2846 2842 2838 2836 2835 2834 2832 2830 2827 2825 2824 2823 2822
2907 2904 2901 2899 2897 2895 2893 2891 2889 2888 2887 2884 2882 2880 2877 2875 2873 2871 2869 2867 2864 2861 2858 2856 2854 2852 2849 2846 2843 2840 2836 2831 2828 2827 2826 2824 2822 2819 2817 2816 2815 2814
2900 2897 2894 2892 2890 2888 2886 2885 2883 2882 2880 2878 2875 2873 2871 2869 2867 2865 2862 2860 2857 2855 2852 2849 2848 2846 2842 2839 2836 2834 2831 2826 2822 2820 2819 2817 2815 2813 2810 2809 2808 2806
2892 2890 2888 2885 2883 2882 2880 2879 2877 2875 2873 2871 2869 2866 2864 2863 2861 2858 2856 2853 2851 2848 2845 2843 2841 2839 2836 2832 2830 2828 2825 2821 2816 2814 2813 2811 2809 2807 2805 2803 2802 2800
2885 2883 2880 2879 2877 2876 2874 2873 2871 2869 2867 2865 2862 2860 2858 2856 2854 2852 2849 2847 2844 2842 2839 2837 2835 2832 2829 2826 2823 2821 2819 2815 2811 2809 2807 2805 2803 2801 2800 2798 2796 2794
2878 2876 2874 2872 2871 2870 2868 2866 2864 2862 2860 2858 2856 2854 2852 2850 2847 2845 2842 2840 2838 2835 2832 2830 2829 2826 2822 2819 2817 2814 2812 2808 2805 2803 2801 2799 2797 2795 2794 2792 2790 2788
2871 2869 2868 2866 2865 2863 2861 2859 2857 2856 2854 2852 2850 2848 2846 2843 2841 2838 2836 2834 2832 2829 2826 2824 2822 2819 2816 2813 2810 2808 2805 2801 2799 2797 2795 2793 2792 2790 2788 2786 2785 2783
2865 2863 2861 2860 2858 2857 2855 2853 2851 2850 2848 2846 2843 2841 2839 2837 2834 2832 2830 2828 2825 2823 2820 2817 2816 2813 2809 2806 2804 2802 2798 2795 2793 2791 2789 2787 2785 2784 2782 2780 2779 2777
2859 2857 2855 2854 2852 2850 2849 2847 2845 2844 2841 2839 2837 2835 2833 2830 2828 2825 2823 2821 2819 2816 2813 2810 2808 2806 2803 2800 2798 2796 2792 2789 2786 2784 2783 2781 2779 2777 2776 2774 2773 2772
2853 2851 2849 2848 2846 2844 2842 2841 2839 2837 2835 2833 2831 2829 2826 2824 2821 2819 2817 2815 2812 2810 2807 2804 2801 2799 2797 2794 2791 2790 2787 2783 2780 2778 2776 2774 2772 2771 2769 2768 2767 2767
Wind_Speed
49 50 50 51 50 50 49 49 49 49 49 48 48 48 49 50 51 51 51 51 51 52 52 52 52 51 51 52 52 53 53 53 53 52 53 54 54 54 54 53 53 53
50 50 50 50 50 49 49 49 49 49 49 49 49 49 50 51 51 52 51 51 51 52 52 52 52 51 51 52 53 53 53 52 52 52 53 53 53 53 53 53 52 52
50 50 50 50 49 49 49 49 50 50 50 50 50 50 50 51 52 52 51 51 52 52 52 51 51 51 51 52 52 53 52 52 52 52 53 53 53 53 53 52 52 51
49 49 49 49 49 49 49 50 51 51 51 51 51 51 51 52 52 52 51 51 52 52 52 51 51 51 51 52 52 52 52 52 52 52 53 53 53 53 52 51 51 50
49 49 49 49 49 49 50 52 52 52 52 51 51 52 52 52 52 52 51 52 52 52 52 51 51 51 52 52 53 52 52 52 52 52 53 53 52 52 52 51 50 49
49 48 49 49 49 50 51 53 53 53 53 52 52 52 52 53 52 52 52 52 52 52 52 51 51 51 52 52 52 52 51 51 52 52 53 52 52 52 51 50 49 49
49 49 49 49 50 51 52 53 53 53 53 52 53 53 52 52 52 52 52 52 52 52 51 51 51 52 52 52 52 51 51 51 52 52 52 52 51 51 50 49 49 48
49 49 50 50 51 52 53 54 54 53 53 53 53 53 52 52 52 52 52 52 52 52 52 51 51 52 52 52 51 51 51 52 52 52 52 51 51 50 50 49 49 48
49 50 50 51 51 52 53 54 54 53 53 53 53 52 52 52 52 52 52 52 52 52 52 51 52 51 51 51 51 51 51 51 52 52 51 51 50 50 49 49 49 48
50 50 51 51 52 53 54 54 53 53 53 53 52 52 52 52 52 52 51 51 52 52 51 51 51 51 51 51 50 50 51 51 52 51 51 51 50 50 49 49 48 47
50 50 51 51 52 54 54 54 53 53 52 52 51 51 52 52 52 51 51 51 51 51 51 51 51 51 51 50 50 50 51 51 51 51 51 50 49 49 49 48 48 47
49 50 50 51 53 54 54 53 53 52 51 51 51 51 52 51 51 50 50 51 51 51 51 51 50 50 50 50 50 50 51 51 51 51 50 50 49 49 49 48 47 46
48 49 50 52 53 54 53 53 52 51 50 50 51 51 51 50 50 50 50 51 50 50 50 50 50 50 49 49 49 50 50 50 50 50 50 49 49 49 49 48 47 45
47 49 51 52 53 53 52 52 51 49 50 50 50 50 50 49 49 50 50 50 50 50 50 50 50 49 49 49 49 49 50 50 50 49 49 49 49 49 48 48 46 45
47 49 51 51 52 52 51 50 49 49 49 49 49 49 48 48 49 50 50 49 49 49 49 49 49 49 48 49 49 49 49 49 49 49 49 48 48 49 48 47 46 44
47 49 50 50 51 50 50 49 48 48 49 49 48 48 48 49 49 49 49 48 48 48 48 49 48 48 48 48 48 49 49 49 49 48 48 48 48 48 48 46 45 43
47 48 48 49 50 49 48 47 47 48 48 47 47 47 48 49 49 48 48 48 48 48 48 48 48 47 47 47 47 48 48 49 50 49 48 47 47 48 47 46 44 42
46 47 48 48 48 47 46 46 47 47 46 46 47 48 48 48 48 48 47 47 47 48 48 48 47 46 46 46 46 46 47 48 49 49 48 47 47 48 47 46 44 42
45 46 47 47 47 46 46 46 45 45 45 46 47 48 48 47 47 47 47 46 47 47 48 48 46 45 45 46 46 45 45 46 48 48 47 47 47 47 47 46 44 43
45 46 46 46 45 45 44 44 44 44 45 46 47 47 47 46 46 46 46 46 46 47 47 47 45 44 44 45 45 45 44 45 46 46 46 46 45 45 45 45 44 43
44 45 45 44 44 43 42 42 43 45 45 46 46 46 46 45 45 46 46 46 46 46 47 46 44 43 44 44 44 44 43 44 45 45 46 45 44 43 43 43 42 42
44 44 44 42 41 41 41 42 44 45 45 45 45 45 45 45 45 45 45 45 45 45 46 46 44 43 44 44 43 43 43 44 44 44 44 44 43 42 42 41 41 41
44 43 41 40 39 40 41 43 44 44 44 44 44 44 44 44 45 45 45 45 45 45 45 45 44 43 43 43 43 42 42 43 44 44 43 42 41 40 40 40 39 39
42 41 39 38 39 40 41 43 43 43 43 43 43 43 44 44 45 45 45 44 44 44 44 45 44 42 42 43 42 41 42 43 43 43 42 41 40 39 39 38 38 38
40 38 37 38 39 40 42 42 43 42 42 43 43 43 44 44 45 45 44 44 43 43 43 44 43 42 41 42 41 41 41 43 43 42 41 40 39 39 38 37 37 37
38 37 37 38 39 41 42 42 42 42 42 43 43 43 44 44 44 44 44 43 42 42 42 43 43 42 41 41 41 40 41 42 42 41 40 39 38 38 38 37 37 36
Wind_Direction
287 288 288 289 290 291 292 294 296 297 297 298 299 299 298 297 297 297 298 299 299 298 298 299 300 301 302 302 303 303 303 304 304 305 304 304 303 303 302 302 302 301
288 288 289 290 290 291 293 295 297 297 298 299 299 298 297 296 296 297 298 298 298 298 298 299 300 302 302 302 302 302 303 304 304 304 304 303 302 302 302 301 301 300
288 289 289 290 291 292 294 296 297 298 299 299 298 297 296 295 295 296 298 298 297 297 298 299 301 302 302 301 301 302 303 304 304 304 303 302 302 301 301 301 300 300
289 289 290 290 291 293 295 296 297 298 299 298 297 296 294 294 295 296 297 297 296 297 298 300 301 301 301 301 301 302 303 304 304 303 302 302 301 301 301 300 300 299
289 289 289 289 291 292 293 295 297 298 298 297 296 294 293 294 295 296 297 296 296 298 299 300 301 301 301 301 301 302 303 304 303 302 301 301 301 300 300 300 299 298
288 288 288 289 290 291 293 295 297 297 297 296 294 293 293 294 295 296 296 296 297 298 299 300 301 300 300 300 301 302 303 303 302 301 301 300 300 300 299 299 298 297
286 286 287 287 288 290 292 295 297 296 296 294 292 292 292 294 295 296 295 296 297 298 299 300 300 300 300 300 301 302 303 302 301 300 300 300 299 299 298 297 296 295
285 285 285 285 287 289 293 295 296 295 293 291 291 291 292 294 295 295 295 296 297 298 299 299 299 299 300 301 302 302 302 301 301 300 299 299 298 298 297 296 295 294
283 283 284 285 287 290 293 295 295 293 291 290 290 291 292 294 294 294 295 296 297 298 298 299 299 299 300 301 301 302 301 300 300 299 299 298 298 297 296 295 294 294
282 283 284 286 288 291 294 294 292 290 289 289 290 291 292 293 293 294 295 296 296 297 298 298 299 299 300 301 301 301 300 300 299 298 298 298 297 296 296 294 294 293
283 284 285 287 290 292 293 292 290 289 289 289 290 291 292 292 293 294 295 295 296 297 297 298 299 299 300 300 301 300 299 299 298 297 297 297 296 296 295 294 293 293
284 285 287 289 290 292 291 289 288 288 288 289 289 290 291 292 293 294 294 294 295 296 297 298 299 299 300 300 300 299 299 298 297 297 296 296 295 295 294 293 293 293
285 286 287 289 290 290 289 288 288 288 287 288 289 290 291 292 293 293 293 294 296 297 298 299 299 299 300 300 299 298 297 297 296 296 296 295 295 294 293 293 293 293
287 287 288 289 290 289 288 288 287 287 287 288 289 290 291 292 292 293 293 295 297 298 299 299 299 299 299 299 298 297 297 296 296 296 295 295 294 294 293 293 293 293
287 288 289 289 288 288 287 287 286 286 286 288 289 291 292 292 292 293 294 296 297 298 298 298 299 299 299 298 297 297 296 296 295 295 295 295 294 294 293 293 293 293
289 289 289 288 287 287 287 286 285 286 287 289 291 291 291 291 292 294 295 297 298 298 298 298 299 299 299 298 297 297 296 295 294 294 294 294 294 293 292 292 292 292
290 290 288 288 287 286 286 285 285 286 289 291 291 291 291 292 294 295 296 297 298 298 298 298 299 299 298 298 297 297 296 295 294 294 294 294 294 293 292 292 292 292
290 289 288 287 287 286 285 285 286 289 291 291 290 290 291 293 295 296 297 297 298 298 298 298 299 299 299 298 297 296 296 295 295 296 296 296 295 295 295 295 295 295
290 289 288 287 286 285 285 286 288 290 290 289 290 291 293 295 296 296 297 297 298 298 299 299 300 300 299 297 296 296 296 295 294 295 296 296 296 296 296 297 297 298
290 289 288 286 285 285 286 288 289 289 289 289 291 293 294 295 296 296 297 297 298 299 299 300 301 300 298 297 296 296 296 294 294 294 295 295 295 295 295 296 297 297
290 289 288 286 286 287 288 289 288 288 289 291 292 294 295 296 296 296 297 298 298 299 300 301 301 300 298 297 296 296 295 294 294 295 295 294 294 294 294 295 295 295
291 290 289 288 288 288 288 288 288 289 290 292 293 295 295 296 296 297 298 298 299 300 300 301 301 300 298 297 297 297 296 295 295 295 295 295 295 294 294 294 294 294
293 292 291 290 288 287 288 288 289 290 292 293 294 296 296 297 297 298 298 299 300 300 300 301 301 300 298 297 297 297 297 296 296 296 295 295 294 293 292 292 292 292
296 294 292 289 287 288 288 289 290 292 293 295 296 297 297 298 298 298 298 299 300 301 301 301 301 300 298 298 298 298 298 297 297 297 296 295 294 293 292 291 290 290
297 293 290 288 288 288 289 290 292 294 295 296 297 298 298 298 298 298 298 299 300 301 301 301 301 300 298 298 298 299 299 298 298 297 297 295 294 292 291 290 290 291
295 291 289 288 288 289 290 292 294 295 296 297 298 298 298 298 298 298 299 300 301 302 302 302 301 299 298 298 299 300 300 299 298 298 297 295 293 291 290 289 289 292